Temperature
18 18 18 18 18 18 18 18 18 18 18 18 18 18 18 18 18 18 18 18 18 18 18 18 18 18 18 18 18 18 18 18 18 17 17 17 17 17 17 17 17 16 16
18 18 18 18 18 18 18 18 18 18 18 18 18 18 18 18 18 18 18 18 19 19 18 18 18 18 18 18 18 18 18 18 18 18 18 17 17 17 17 17 17 17 16
18 18 18 18 18 18 18 18 18 18 18 18 18 18 18 18 19 19 19 19 19 19 19 19 18 18 18 18 18 18 18 18 18 18 18 18 17 17 17 17 17 17 17
18 18 18 17 18 18 18 18 18 18 18 18 18 18 18 18 19 19 18 18 19 18 19 19 19 19 19 18 18 18 19 18 18 18 18 18 18 17 17 17 17 17 17
17 17 17 17 17 17 17 17 17 18 18 18 18 18 18 18 18 18 18 18 18 18 18 18 19 19 19 19 19 19 19 19 19 18 18 18 18 18 17 17 17 17 17
17 17 17 17 16 17 17 17 17 17 18 18 17 18 18 18 18 18 18 18 18 18 18 18 18 18 19 19 19 19 19 19 19 19 18 18 18 18 18 18 17 17 17
16 16 16 16 16 16 16 16 17 17 17 17 17 17 17 17 17 18 18 18 18 18 18 18 18 18 18 19 19 19 19 19 19 19 19 18 18 18 18 18 18 17 17
16 16 15 16 16 16 16 16 16 16 16 17 17 17 17 18 18 18 18 18 18 18 18 18 18 18 18 18 18 18 19 19 19 19 19 18 18 18 18 18 18 18 17
16 16 16 15 15 15 15 15 15 15 16 16 16 16 17 18 19 19 18 18 18 18 18 18 18 17 17 17 17 17 18 18 19 19 18 18 18 18 18 18 18 18 17
15 15 15 15 15 15 15 15 15 15 15 16 16 16 16 17 17 18 18 18 17 17 17 17 17 17 17 17 17 17 17 18 18 18 18 18 18 18 18 18 18 17 17
15 15 15 15 15 15 14 15 15 15 14 15 15 16 16 16 16 16 18 18 17 17 17 17 17 17 16 16 16 16 17 17 17 17 17 18 18 18 18 18 17 17 17
15 14 14 14 15 14 14 14 14 14 14 14 14 15 15 16 16 16 17 17 17 17 16 16 16 16 16 16 15 16 16 16 16 17 17 17 17 17 17 17 17 17 17
15 15 14 15 14 14 14 14 14 14 14 14 14 14 15 15 16 16 16 16 16 16 16 15 15 15 15 15 15 15 15 16 16 16 16 16 17 17 17 17 17 17 16
15 15 15 15 14 14 14 14 14 14 14 14 14 14 14 15 15 15 15 15 15 15 15 14 14 14 14 14 14 14 14 15 15 15 15 15 16 16 16 16 16 16 16
15 15 15 15 14 14 14 14 13 13 13 13 13 14 14 14 14 15 15 15 15 15 14 14 13 14 14 14 14 14 14 14 14 14 15 15 15 15 15 16 15 15 15
15 15 15 14 14 14 13 13 13 13 13 13 13 14 14 14 14 14 14 14 14 14 14 13 13 13 13 13 13 13 13 13 14 14 14 14 14 14 15 15 15 15 15
14 14 14 14 14 13 13 13 13 13 13 13 13 13 13 14 14 14 14 14 14 14 14 13 12 12 13 12 13 13 13 13 13 13 13 13 13 14 14 14 14 14 14
13 13 13 13 13 13 13 13 13 13 13 13 13 13 13 13 13 14 14 14 14 14 13 13 12 12 12 12 12 12 12 12 12 12 13 13 13 13 13 13 13 13 13
13 13 13 13 13 13 12 12 12 12 13 13 13 13 13 13 13 13 13 13 13 13 13 12 12 11 11 12 12 12 11 11 11 12 12 12 12 12 12 12 12 12 13
12 12 12 12 12 12 12 12 12 12 12 12 13 13 13 13 13 13 13 13 13 12 12 12 11 11 11 11 11 12 11 11 11 11 11 12 12 12 12 12 12 12 12
11 12 12 12 12 12 12 12 12 12 12 12 12 12 12 13 13 13 12 12 12 12 12 12 12 12 11 11 12 12 12 11 11 11 11 11 11 11 11 11 11 11 12
10 11 11 11 11 12 12 12 12 11 11 11 12 12 12 12 12 12 12 12 12 12 12 12 12 12 11 11 12 12 12 12 11 11 11 11 10 10 10 10 11 11 11
10 10 11 11 11 11 11 12 11 11 11 11 11 11 11 11 11 12 11 11 11 11 12 12 12 11 11 11 11 12 12 12 11 11 11 11 10 10 9 10 10 10 10
9 10 10 10 11 11 11 11 11 11 11 11 11 11 11 11 11 11 11 11 11 11 11 11 11 11 11 11 11 11 11 11 11 10 11 11 10 10 9 9 9 9 9
8 9 9 10 10 10 11 11 11 10 10 10 10 11 11 11 11 11 11 11 11 11 11 11 11 11 11 11 10 11 11 11 11 10 11 11 11 10 10 9 9 9 9
8 8 9 9 10 10 10 10 10 10 10 10 10 10 10 10 10 10 11 11 10 10 10 10 10 10 10 10 10 11 11 12 12 11 10 11 11 11 10 9 9 9 8
Wind_Speed
9 9 8 9 11 11 10 10 10 10 11 12 13 13 12 12 12 12 10 11 14 17 18 18 18 18 19 20 20 21 22 24 26 27 28 29 29 28 28 27 27 26 26
9 9 10 10 11 12 11 10 11 11 11 11 12 12 12 13 12 12 13 11 14 17 18 18 18 18 19 20 20 20 21 22 24 26 27 28 29 29 29 28 28 27 27
11 10 11 11 11 12 12 11 12 11 11 11 12 13 13 13 12 12 13 12 12 14 17 18 19 19 19 19 20 20 21 22 23 24 26 27 28 29 29 29 29 28 28
12 10 11 11 11 12 10 11 11 11 11 11 12 12 12 11 13 13 14 13 12 13 14 17 19 19 20 20 20 20 21 22 23 23 25 26 27 28 29 29 29 28 28
10 10 10 11 12 11 11 12 11 11 12 13 13 12 13 13 14 15 16 15 14 13 14 14 17 20 21 21 21 21 21 22 23 24 24 25 27 28 28 29 29 28 28
9 10 10 11 11 11 11 11 13 12 12 12 13 14 13 14 14 14 15 15 14 15 16 16 15 16 21 22 22 22 22 22 22 24 25 25 26 27 28 28 29 29 28
9 8 10 10 10 11 12 13 12 14 13 11 11 12 14 16 16 14 14 15 16 15 15 15 15 15 14 19 22 23 23 23 22 23 25 26 26 27 28 28 29 29 28
8 9 9 10 11 10 12 13 13 12 12 10 9 9 9 11 14 16 15 15 16 14 15 15 15 15 15 14 14 19 21 22 22 23 24 26 27 27 28 29 29 29 28
8 8 10 11 11 12 12 12 12 14 13 12 11 10 9 10 9 10 14 14 14 13 14 13 15 15 16 15 15 14 16 18 19 21 22 23 25 26 27 29 29 29 28
8 8 9 10 11 11 12 13 13 12 13 13 12 12 14 13 10 9 9 11 13 13 13 12 13 13 14 13 11 11 9 12 15 17 19 20 23 25 26 28 29 29 28
7 8 8 9 10 11 12 12 13 13 13 14 13 12 14 13 15 13 12 10 9 10 10 10 10 10 10 9 8 7 4 7 9 11 13 14 17 21 25 26 28 28 28
7 8 8 9 10 11 11 12 13 15 14 15 14 13 13 12 12 13 14 12 10 8 7 5 6 6 5 5 4 2 2 2 2 3 3 5 7 11 18 23 25 27 28
8 8 9 9 10 11 12 13 13 14 15 16 15 14 13 14 13 12 12 12 10 7 4 2 2 2 2 1 2 5 5 5 5 6 6 5 3 1 4 11 18 22 24
9 9 10 10 12 12 13 12 12 13 13 14 15 15 12 12 12 12 11 10 9 7 5 2 2 2 1 2 4 3 7 9 9 10 11 10 10 9 8 6 4 6 10
9 9 10 11 12 13 13 13 12 13 13 14 14 14 12 11 11 10 10 9 8 7 4 2 2 3 2 4 5 7 9 12 13 13 14 14 14 14 13 12 11 10 10
10 10 11 11 12 13 13 13 13 13 13 13 11 12 11 9 9 9 8 7 7 6 3 2 2 2 4 6 8 10 12 16 16 15 16 16 17 17 17 17 16 15 14
11 11 11 11 12 12 12 12 13 13 13 12 12 11 11 10 8 7 6 5 5 5 6 4 3 4 5 7 7 8 10 10 13 17 17 17 18 18 18 17 16 15 14
12 12 12 11 12 12 11 12 12 11 11 11 10 10 9 7 7 5 5 5 4 5 9 9 5 4 5 7 8 8 9 11 12 17 18 18 19 19 18 17 16 16 14
13 13 12 11 11 11 10 10 10 9 8 8 8 7 7 6 6 5 5 6 6 8 8 10 8 5 5 7 9 10 10 9 12 15 18 18 19 19 18 17 16 15 14
13 13 13 11 10 10 9 9 8 7 5 4 4 4 4 5 6 6 7 8 9 10 10 9 9 7 7 7 7 9 9 8 9 10 11 13 17 18 18 16 15 14 13
14 13 13 12 10 8 7 6 6 5 3 1 1 1 2 5 6 6 7 9 11 10 9 9 9 8 8 7 7 7 9 9 8 7 8 8 9 9 11 14 15 14 13
14 13 13 12 10 7 1 2 5 3 1 1 3 5 7 8 11 13 12 10 8 10 10 9 8 9 8 7 7 7 9 8 7 5 7 8 8 9 10 12 13 14 13
13 13 12 11 10 6 5 2 2 2 2 3 5 6 7 8 11 12 14 14 12 10 7 7 11 10 9 8 8 7 7 8 8 6 6 8 8 9 10 13 14 14 14
12 12 12 11 10 8 9 6 4 4 5 5 6 8 9 9 10 12 13 13 11 9 7 9 11 10 10 8 7 9 10 10 8 5 4 7 7 8 9 10 12 13 13
11 11 11 11 11 9 11 10 8 7 7 7 7 8 10 11 11 12 14 14 13 11 14 17 15 13 13 9 4 7 8 8 8 7 4 5 6 7 7 7 9 11 11
11 11 10 11 12 11 13 13 11 8 9 8 8 8 10 12 11 10 13 14 13 12 13 13 12 11 11 8 5 3 4 6 8 7 4 3 4 4 5 6 6 5 6
Wind_Direction
260 263 265 263 266 266 258 250 256 260 257 254 251 249 250 252 252 256 259 234 235 242 248 250 249 247 243 241 241 240 235 231 227 223 221 220 220 221 222 223 224 223 222
265 267 265 264 264 265 265 265 261 257 254 252 251 250 250 252 251 252 257 253 234 239 247 251 253 252 248 244 242 240 236 232 228 225 222 220 220 221 222 223 224 224 224
268 268 270 269 266 267 265 262 261 258 253 250 249 248 248 247 249 247 250 255 255 240 238 243 248 251 251 249 246 241 237 234 230 226 222 221 220 220 220 222 223 223 223
277 274 273 273 273 270 266 261 256 255 252 251 250 250 247 245 245 246 249 247 251 257 247 236 238 244 250 253 250 246 240 235 230 226 222 220 219 219 219 221 222 222 222
290 285 283 282 280 275 269 266 260 256 255 252 252 248 247 245 245 247 249 247 246 248 257 252 238 238 245 252 252 249 244 237 231 226 222 220 218 218 219 219 220 221 221
298 297 288 287 286 279 272 267 266 262 259 258 258 257 251 247 245 245 246 245 245 245 249 256 257 246 236 238 243 246 247 244 236 228 224 221 219 217 217 218 218 219 219
305 299 295 298 289 284 283 279 273 268 262 258 258 259 254 248 245 245 242 244 244 243 243 248 254 259 255 233 230 236 241 243 240 233 226 222 220 217 216 216 216 217 218
304 298 300 295 292 290 282 278 275 273 271 257 249 257 261 252 240 239 239 238 242 243 244 245 248 250 255 260 246 227 233 239 242 239 231 224 221 218 215 214 214 215 215
299 299 296 294 296 290 285 285 281 271 270 266 248 246 255 256 262 243 232 236 239 240 244 247 247 248 249 251 257 240 227 233 240 241 236 228 222 219 215 214 213 213 213
294 297 293 292 290 289 288 281 277 275 269 266 258 245 249 265 266 266 244 234 234 237 242 246 249 248 250 252 251 262 250 242 242 244 242 236 227 220 216 214 213 212 211
292 293 293 293 289 285 285 284 282 274 269 265 262 256 251 251 250 255 261 251 237 234 235 238 246 252 254 251 253 253 236 237 240 243 243 241 233 224 219 215 214 213 212
297 298 297 293 289 287 286 281 277 271 266 266 263 259 253 250 245 244 248 250 250 245 232 238 248 251 251 250 246 86 115 176 197 208 232 240 238 232 223 218 217 215 214
300 306 302 296 293 290 286 283 278 274 270 265 260 256 253 252 254 252 252 253 252 246 230 223 255 259 238 212 139 111 103 104 104 99 93 85 80 124 221 220 220 220 217
295 304 295 291 291 290 288 284 281 275 269 265 261 257 255 253 251 246 245 246 244 237 223 185 86 41 53 97 91 97 103 89 90 91 88 84 79 76 74 86 129 181 196
282 286 287 289 290 290 289 286 279 276 272 266 261 257 252 251 248 246 243 239 233 229 213 148 102 45 67 91 95 96 93 85 85 85 85 83 80 78 77 82 88 94 104
274 277 280 285 289 290 290 286 282 276 272 266 261 257 253 249 246 240 236 230 227 220 180 113 99 95 95 97 93 97 95 88 79 81 83 84 84 81 78 79 81 82 86
272 270 274 280 286 291 293 292 288 283 275 269 262 255 252 246 237 227 217 211 205 184 145 111 96 97 102 107 106 105 103 94 84 80 84 85 85 83 81 79 79 80 81
273 268 269 274 280 287 292 292 292 289 280 272 262 251 245 233 220 214 193 182 163 147 138 130 119 109 105 107 107 106 101 95 92 84 85 85 84 83 81 79 78 77 77
276 269 265 267 275 284 288 291 292 290 287 278 265 247 234 216 202 184 167 149 133 126 126 130 126 125 123 122 114 103 98 101 100 100 93 88 87 85 81 78 77 75 74
279 270 262 262 268 276 282 287 290 290 291 290 277 249 224 201 180 159 145 135 128 126 127 130 132 132 126 130 129 122 113 103 101 101 95 101 101 94 86 78 73 71 68
282 271 262 257 257 262 271 284 284 281 284 293 46 104 113 108 110 121 133 135 136 136 138 137 136 136 137 147 137 128 118 115 105 112 118 119 114 100 92 81 71 65 64
293 276 262 254 248 248 122 313 286 261 242 143 112 101 99 102 101 95 97 103 122 141 143 142 141 135 135 135 132 140 143 135 116 106 111 105 99 90 78 72 65 64 62
304 286 264 252 242 217 155 198 261 236 151 128 122 116 107 109 115 114 102 92 81 77 107 131 131 131 130 131 139 128 102 101 97 116 123 112 106 99 93 80 75 70 64
302 294 273 250 236 205 169 177 189 169 132 120 119 118 117 119 118 122 120 112 103 87 93 105 110 109 109 108 107 108 113 115 112 101 120 122 118 112 106 95 91 81 71
297 296 285 258 233 201 175 179 193 158 136 125 122 122 124 124 122 125 123 119 112 98 73 74 78 83 70 59 80 143 153 141 122 107 100 120 125 122 111 107 115 118 99
286 293 287 270 238 210 178 182 198 167 147 139 129 125 125 128 134 139 134 130 125 122 118 110 103 111 106 92 47 88 138 135 130 111 81 99 124 146 126 97 77 80 88
Height
1537 1537 1536 1535 1535 1535 1534 1533 1533 1533 1533 1533 1533 1533 1533 1533 1533 1533 1533 1532 1533 1533 1534 1534 1534 1535 1536 1537 1538 1539 1540 1541 1542 1544 1545 1546 1548 1549 1551 1553 1555 1557 1559
1533 1532 1531 1530 1529 1529 1529 1528 1527 1527 1527 1527 1527 1527 1527 1528 1527 1527 1527 1527 1527 1528 1528 1529 1529 1530 1531 1532 1533 1534 1535 1536 1538 1539 1540 1541 1543 1544 1546 1548 1550 1552 1554
1528 1527 1526 1525 1524 1523 1523 1522 1521 1521 1521 1521 1521 1521 1521 1521 1521 1521 1521 1521 1522 1522 1522 1523 1524 1525 1526 1527 1528 1529 1530 1531 1532 1533 1534 1536 1537 1539 1540 1542 1544 1546 1549
1524 1523 1521 1520 1518 1517 1517 1516 1515 1515 1515 1515 1514 1514 1514 1514 1514 1514 1514 1514 1515 1516 1517 1517 1518 1519 1520 1520 1521 1522 1524 1525 1526 1527 1529 1530 1531 1533 1535 1536 1538 1540 1543
1520 1518 1517 1515 1513 1512 1510 1510 1509 1508 1508 1508 1507 1507 1507 1506 1506 1506 1507 1507 1508 1509 1510 1511 1511 1512 1513 1514 1515 1516 1517 1518 1520 1521 1522 1524 1525 1527 1529 1530 1532 1534 1537
1516 1514 1513 1510 1509 1507 1505 1503 1502 1502 1501 1501 1501 1500 1500 1499 1499 1499 1498 1500 1500 1501 1503 1504 1505 1505 1505 1506 1507 1508 1509 1511 1512 1514 1516 1517 1519 1521 1522 1524 1526 1528 1531
1512 1510 1508 1506 1504 1503 1501 1499 1498 1496 1495 1495 1494 1493 1492 1492 1491 1490 1491 1491 1492 1494 1495 1496 1497 1498 1498 1498 1499 1500 1501 1503 1504 1506 1508 1510 1512 1514 1516 1518 1520 1522 1524
1508 1507 1504 1502 1500 1497 1495 1494 1492 1491 1490 1490 1489 1488 1486 1486 1483 1483 1483 1483 1484 1486 1487 1488 1489 1490 1490 1491 1492 1492 1493 1494 1496 1498 1500 1502 1504 1506 1508 1511 1513 1515 1518
1504 1502 1499 1497 1495 1493 1491 1489 1487 1486 1485 1484 1483 1483 1481 1478 1477 1477 1476 1476 1477 1478 1479 1480 1482 1483 1483 1483 1484 1484 1484 1485 1487 1489 1491 1494 1496 1499 1501 1504 1506 1509 1511
1500 1497 1495 1492 1490 1488 1486 1483 1483 1481 1479 1478 1477 1476 1475 1474 1474 1471 1471 1471 1471 1471 1472 1473 1475 1476 1476 1476 1476 1476 1476 1477 1479 1480 1483 1485 1488 1491 1494 1496 1499 1502 1504
1497 1494 1491 1488 1485 1483 1480 1478 1476 1474 1473 1472 1471 1470 1469 1468 1468 1467 1466 1466 1466 1466 1466 1466 1467 1468 1469 1469 1469 1469 1469 1470 1471 1473 1475 1478 1481 1484 1486 1489 1492 1494 1497
1494 1491 1487 1484 1481 1478 1475 1472 1470 1468 1466 1465 1464 1463 1463 1462 1461 1461 1460 1460 1460 1461 1460 1461 1461 1462 1462 1463 1463 1463 1463 1464 1465 1467 1469 1471 1474 1477 1479 1482 1485 1488 1491
1490 1487 1483 1479 1476 1473 1470 1467 1464 1461 1459 1457 1456 1455 1455 1455 1455 1455 1455 1454 1455 1456 1455 1455 1456 1456 1457 1458 1458 1459 1459 1460 1461 1462 1464 1466 1468 1470 1473 1476 1478 1481 1484
1485 1481 1478 1475 1472 1468 1465 1461 1458 1455 1452 1450 1449 1448 1448 1448 1448 1448 1449 1450 1450 1451 1451 1451 1452 1453 1453 1454 1455 1456 1456 1457 1458 1459 1460 1462 1463 1466 1468 1470 1473 1475 1478
1479 1476 1473 1470 1467 1463 1459 1456 1452 1449 1446 1444 1442 1442 1441 1441 1442 1442 1443 1444 1446 1446 1448 1449 1449 1450 1451 1452 1453 1454 1454 1455 1456 1457 1458 1460 1461 1463 1464 1466 1468 1471 1473
1473 1470 1468 1465 1462 1458 1455 1451 1447 1444 1441 1438 1437 1436 1436 1435 1436 1437 1438 1439 1440 1442 1444 1446 1447 1449 1450 1451 1452 1453 1454 1455 1456 1457 1458 1459 1460 1461 1463 1465 1467 1469 1471
1467 1464 1462 1460 1457 1453 1450 1446 1442 1439 1436 1433 1432 1431 1431 1431 1431 1432 1433 1435 1436 1439 1441 1444 1446 1448 1450 1451 1452 1454 1455 1456 1457 1458 1459 1460 1461 1462 1463 1465 1467 1468 1470
1460 1459 1456 1454 1451 1448 1445 1441 1437 1434 1431 1429 1427 1427 1427 1427 1428 1429 1430 1432 1434 1436 1439 1441 1445 1448 1450 1452 1453 1455 1457 1458 1458 1459 1460 1461 1462 1463 1464 1466 1467 1468 1470
1453 1452 1450 1448 1446 1443 1440 1437 1433 1430 1427 1425 1424 1423 1423 1424 1425 1427 1429 1431 1432 1435 1438 1441 1445 1448 1450 1453 1455 1457 1459 1460 1461 1462 1462 1463 1464 1465 1466 1467 1468 1469 1470
1446 1445 1444 1442 1440 1438 1435 1432 1429 1426 1424 1422 1421 1420 1421 1423 1424 1426 1428 1430 1432 1435 1438 1442 1446 1449 1452 1455 1457 1459 1461 1462 1464 1465 1465 1466 1467 1467 1468 1468 1469 1470 1471
1440 1438 1437 1436 1434 1433 1431 1428 1426 1424 1422 1420 1419 1418 1419 1421 1423 1426 1428 1430 1433 1436 1440 1443 1447 1450 1453 1456 1458 1461 1462 1464 1465 1467 1468 1469 1469 1470 1470 1470 1470 1470 1471
1433 1431 1430 1429 1429 1428 1426 1424 1423 1422 1420 1419 1418 1418 1419 1420 1423 1426 1429 1432 1435 1438 1441 1444 1448 1451 1454 1457 1459 1462 1464 1465 1467 1469 1470 1471 1472 1472 1471 1471 1471 1471 1472
1426 1425 1424 1423 1423 1423 1422 1421 1420 1420 1419 1419 1419 1419 1420 1421 1423 1427 1430 1434 1437 1441 1444 1447 1449 1452 1454 1457 1460 1462 1464 1465 1467 1469 1471 1472 1473 1473 1473 1472 1472 1472 1472
1421 1419 1417 1417 1417 1417 1418 1419 1419 1419 1419 1419 1419 1420 1422 1424 1426 1429 1432 1436 1440 1443 1447 1449 1451 1453 1456 1458 1460 1462 1463 1465 1468 1470 1472 1473 1474 1475 1475 1474 1474 1473 1472
1415 1413 1411 1411 1412 1412 1414 1416 1417 1418 1419 1419 1420 1422 1424 1427 1429 1432 1435 1438 1442 1446 1449 1451 1453 1455 1457 1459 1461 1464 1466 1468 1469 1471 1472 1474 1475 1476 1476 1476 1475 1473 1472
1410 1407 1405 1404 1406 1408 1409 1412 1415 1417 1418 1420 1421 1424 1427 1429 1433 1436 1439 1442 1445 1448 1451 1453 1455 1457 1459 1461 1462 1465 1467 1468 1469 1471 1472 1473 1474 1475 1476 1477 1476 1475 1474